ASA941 KSFO-PHOG

Flight info

Callsign ASA941
Flight time 5h 0m
Altitude 36000
Route GNNRR3 BEBOP R464 BITTA LNDHY1
Aircraft B752/M-SDE2E3FGHIJ3J4J7RWXY/LB1

Departure

Time 2026-05-05 14:46
Airport San Francisco International Airport (KSFO)

Arrival

Time 2026-05-05 19:46
Airport Kahului International Airport (PHOG)
Time Latitude Longitude Altitude Speed Heading
2026-05-05 14:28 37.61331 -122.38987 22 ft 0 kts 117°
2026-05-05 14:34 37.61334 -122.38994 22 ft 2 kts 117°
2026-05-05 14:34 37.61342 -122.39012 22 ft 2 kts 117°
2026-05-05 14:34 37.61349 -122.39029 22 ft 2 kts 119°
2026-05-05 14:34 37.61357 -122.39047 22 ft 2 kts 114°
2026-05-05 14:35 37.61360 -122.39062 22 ft 2 kts 78°
2026-05-05 14:35 37.61354 -122.39073 22 ft 2 kts 51°
2026-05-05 14:35 37.61343 -122.39086 22 ft 2 kts 34°
2026-05-05 14:35 37.61329 -122.39096 22 ft 2 kts 26°
2026-05-05 14:36 37.61318 -122.39103 22 ft 0 kts 27°
2026-05-05 14:37 37.61319 -122.39102 22 ft 1 kts 29°
2026-05-05 14:37 37.61327 -122.39085 22 ft 4 kts 79°
2026-05-05 14:38 37.61304 -122.39061 22 ft 7 kts 190°
2026-05-05 14:38 37.61250 -122.39104 22 ft 12 kts 214°
2026-05-05 14:38 37.61166 -122.39163 22 ft 15 kts 187°
2026-05-05 14:38 37.61093 -122.39098 22 ft 13 kts 116°
2026-05-05 14:39 37.61055 -122.39000 22 ft 12 kts 115°
2026-05-05 14:39 37.61070 -122.38907 22 ft 12 kts 53°
2026-05-05 14:39 37.61130 -122.38814 22 ft 15 kts 51°
2026-05-05 14:39 37.61134 -122.38688 22 ft 16 kts 112°
2026-05-05 14:40 37.61081 -122.38547 22 ft 19 kts 116°
2026-05-05 14:40 37.61039 -122.38406 22 ft 10 kts 70°
2026-05-05 14:40 37.61096 -122.38346 22 ft 13 kts 29°
2026-05-05 14:40 37.61185 -122.38286 22 ft 16 kts 28°
2026-05-05 14:41 37.61288 -122.38217 22 ft 19 kts 28°
2026-05-05 14:41 37.61417 -122.38136 22 ft 23 kts 26°
2026-05-05 14:41 37.61570 -122.38043 22 ft 26 kts 27°
2026-05-05 14:41 37.61702 -122.37915 22 ft 19 kts 95°
2026-05-05 14:42 37.61674 -122.37764 22 ft 19 kts 101°
2026-05-05 14:42 37.61650 -122.37583 22 ft 23 kts 98°
2026-05-05 14:42 37.61622 -122.37373 22 ft 26 kts 96°
2026-05-05 14:42 37.61570 -122.37155 22 ft 26 kts 114°
2026-05-05 14:43 37.61492 -122.36956 22 ft 25 kts 116°
2026-05-05 14:43 37.61386 -122.36796 22 ft 23 kts 128°
2026-05-05 14:43 37.61305 -122.36627 22 ft 22 kts 117°
2026-05-05 14:43 37.61237 -122.36460 22 ft 21 kts 118°
2026-05-05 14:44 37.61171 -122.36301 22 ft 20 kts 117°
2026-05-05 14:44 37.61107 -122.36145 22 ft 20 kts 117°
2026-05-05 14:44 37.61055 -122.35984 22 ft 19 kts 92°
2026-05-05 14:44 37.61103 -122.35900 22 ft 12 kts 33°
2026-05-05 14:45 37.61178 -122.35876 22 ft 11 kts 338°
2026-05-05 14:45 37.61215 -122.35952 22 ft 17 kts 299°
2026-05-05 14:45 37.61386 -122.36331 22 ft 86 kts 296°
2026-05-05 14:45 37.61777 -122.37279 22 ft 157 kts 299°
2026-05-05 14:46 37.62401 -122.38670 235 ft 199 kts 303°
2026-05-05 14:46 37.63187 -122.40226 884 ft 215 kts 306°
2026-05-05 14:46 37.63981 -122.41900 1722 ft 230 kts 301°
2026-05-05 14:46 37.64736 -122.43708 2937 ft 231 kts 300°
2026-05-05 14:47 37.65445 -122.45464 4030 ft 228 kts 299°
2026-05-05 14:47 37.66180 -122.47273 4851 ft 237 kts 297°
2026-05-05 14:47 37.66646 -122.49341 5546 ft 251 kts 278°
2026-05-05 14:47 37.66637 -122.51573 6418 ft 259 kts 267°
2026-05-05 14:48 37.66355 -122.53873 7195 ft 269 kts 261°
2026-05-05 14:48 37.65910 -122.56185 7954 ft 278 kts 258°
2026-05-05 14:48 37.65362 -122.58552 8728 ft 286 kts 256°
2026-05-05 14:48 37.64749 -122.60975 9489 ft 292 kts 255°
2026-05-05 14:49 37.64106 -122.63450 10112 ft 303 kts 255°
2026-05-05 14:49 37.63430 -122.66044 10558 ft 321 kts 255°
2026-05-05 14:49 37.62715 -122.68792 10983 ft 338 kts 255°
2026-05-05 14:49 37.61973 -122.71641 11393 ft 355 kts 255°
2026-05-05 14:50 37.61181 -122.74688 11823 ft 370 kts 255°
2026-05-05 14:50 37.60407 -122.77661 12462 ft 376 kts 255°
2026-05-05 14:50 37.59552 -122.80930 13149 ft 384 kts 255°
2026-05-05 14:50 37.58693 -122.84199 13863 ft 390 kts 255°
2026-05-05 14:51 37.57838 -122.87443 14610 ft 395 kts 255°
2026-05-05 14:51 37.56965 -122.90763 15385 ft 398 kts 255°
2026-05-05 14:51 37.56101 -122.94044 16136 ft 401 kts 255°
2026-05-05 14:51 37.55213 -122.97408 16844 ft 405 kts 255°
2026-05-05 14:52 37.54317 -123.00798 17528 ft 408 kts 255°
2026-05-05 14:52 37.53422 -123.04200 18207 ft 410 kts 255°
2026-05-05 14:52 37.52530 -123.07594 18866 ft 413 kts 255°
2026-05-05 14:52 37.51628 -123.11076 19468 ft 418 kts 255°
2026-05-05 14:53 37.50722 -123.14590 20052 ft 423 kts 255°
2026-05-05 14:53 37.49799 -123.18095 20614 ft 428 kts 255°
2026-05-05 14:53 37.48854 -123.21673 21167 ft 432 kts 255°
2026-05-05 14:53 37.47906 -123.25306 21699 ft 437 kts 255°
2026-05-05 14:54 37.46960 -123.28935 22200 ft 441 kts 256°
2026-05-05 14:54 37.45989 -123.32618 22792 ft 443 kts 256°
2026-05-05 14:54 37.45010 -123.36300 23371 ft 446 kts 256°
2026-05-05 14:54 37.44011 -123.40029 23922 ft 450 kts 256°
2026-05-05 14:55 37.43003 -123.43774 24446 ft 454 kts 256°
2026-05-05 14:55 37.41981 -123.47565 24943 ft 459 kts 256°
2026-05-05 14:55 37.40951 -123.51390 25395 ft 464 kts 255°
2026-05-05 14:55 37.39924 -123.55212 25853 ft 469 kts 255°
2026-05-05 14:56 37.38878 -123.59123 26297 ft 473 kts 255°
2026-05-05 14:56 37.37822 -123.63087 26766 ft 477 kts 255°
2026-05-05 14:56 37.36763 -123.67036 27358 ft 477 kts 253°
2026-05-05 14:56 37.35706 -123.70938 28059 ft 473 kts 254°
2026-05-05 14:57 37.34629 -123.74874 28883 ft 467 kts 254°
2026-05-05 14:57 37.33574 -123.78712 29630 ft 461 kts 254°
2026-05-05 14:57 37.32547 -123.82481 30222 ft 460 kts 254°
2026-05-05 14:57 37.31518 -123.86284 30690 ft 461 kts 254°
2026-05-05 14:58 37.30485 -123.90130 31037 ft 466 kts 254°
2026-05-05 14:58 37.29450 -123.94006 31265 ft 473 kts 255°
2026-05-05 14:58 37.28387 -123.97976 31389 ft 483 kts 254°
2026-05-05 14:58 37.27289 -124.02012 31478 ft 494 kts 254°
2026-05-05 14:59 37.25006 -124.10326 31787 ft 510 kts 253°
2026-05-05 14:59 37.23855 -124.14506 32117 ft 513 kts 253°
2026-05-05 14:59 37.22685 -124.18753 32570 ft 513 kts 253°
2026-05-05 15:00 37.21534 -124.22940 33089 ft 511 kts 253°
2026-05-05 15:00 37.20760 -124.25760 33481 ft 508 kts 253°
2026-05-05 15:00 37.19224 -124.31342 34330 ft 501 kts 253°
2026-05-05 15:00 37.18072 -124.35463 34988 ft 495 kts 252°
2026-05-05 15:01 37.16947 -124.39463 35534 ft 492 kts 252°
2026-05-05 15:01 37.15805 -124.43540 35811 ft 495 kts 253°
2026-05-05 15:01 37.14671 -124.47647 35964 ft 500 kts 253°
2026-05-05 15:01 37.13536 -124.51732 36042 ft 504 kts 252°
2026-05-05 15:02 37.11199 -124.60101 36054 ft 506 kts 252°
2026-05-05 15:02 37.08868 -124.68415 36052 ft 505 kts 252°
2026-05-05 15:03 37.06546 -124.76682 36052 ft 504 kts 252°
2026-05-05 15:03 37.04247 -124.84925 36052 ft 503 kts 253°
2026-05-05 15:04 37.01922 -124.93183 36052 ft 503 kts 252°
2026-05-05 15:04 36.99602 -125.01457 36052 ft 503 kts 253°
2026-05-05 15:05 36.96239 -125.13824 36052 ft 502 kts 253°
2026-05-05 15:06 36.94007 -125.22102 36052 ft 502 kts 253°
2026-05-05 15:06 36.91765 -125.30429 36052 ft 502 kts 253°
2026-05-05 15:07 36.89550 -125.38662 36052 ft 503 kts 253°
2026-05-05 15:07 36.87312 -125.46968 36052 ft 503 kts 253°
2026-05-05 15:08 36.85033 -125.55207 36052 ft 503 kts 253°
2026-05-05 15:08 36.82778 -125.63441 36052 ft 503 kts 253°
2026-05-05 15:09 36.80483 -125.71757 36052 ft 503 kts 253°
2026-05-05 15:09 36.78204 -125.79982 36052 ft 503 kts 253°
2026-05-05 15:10 36.75921 -125.88235 36052 ft 504 kts 253°
2026-05-05 15:10 36.73610 -125.96504 36054 ft 504 kts 252°
2026-05-05 15:11 36.71306 -126.04709 36052 ft 502 kts 253°
2026-05-05 15:11 36.69032 -126.12893 36051 ft 499 kts 253°
2026-05-05 15:12 36.66723 -126.21087 36052 ft 498 kts 253°
2026-05-05 15:12 36.64434 -126.29173 36052 ft 497 kts 252°
2026-05-05 15:13 36.62140 -126.37319 36052 ft 497 kts 252°
2026-05-05 15:13 36.59856 -126.45453 36052 ft 497 kts 252°
2026-05-05 15:14 36.57585 -126.53543 36052 ft 498 kts 252°
2026-05-05 15:14 36.55649 -126.60357 36052 ft 498 kts 252°
2026-05-05 15:15 36.53336 -126.68385 36052 ft 498 kts 252°
2026-05-05 15:15 36.51008 -126.76566 36052 ft 498 kts 252°
2026-05-05 15:16 36.48671 -126.84603 36052 ft 498 kts 252°
2026-05-05 15:16 36.46339 -126.92691 36052 ft 497 kts 252°
2026-05-05 15:17 36.44004 -127.00765 36052 ft 497 kts 252°
2026-05-05 15:17 36.41646 -127.08839 36052 ft 497 kts 252°
2026-05-05 15:18 36.39291 -127.16882 36052 ft 497 kts 252°
2026-05-05 15:18 36.36941 -127.24972 36052 ft 497 kts 252°
2026-05-05 15:19 36.34586 -127.33037 36051 ft 497 kts 252°
2026-05-05 15:19 36.32231 -127.41106 36053 ft 498 kts 251°
2026-05-05 15:20 36.29888 -127.49141 36052 ft 499 kts 252°
2026-05-05 15:20 36.27502 -127.57224 36052 ft 499 kts 251°
2026-05-05 15:21 36.25101 -127.65278 36052 ft 500 kts 251°
2026-05-05 15:21 36.22720 -127.73366 36054 ft 499 kts 252°
2026-05-05 15:22 36.20316 -127.81443 36052 ft 496 kts 252°
2026-05-05 15:22 36.17944 -127.89381 36051 ft 492 kts 252°
2026-05-05 15:23 36.15565 -127.97331 36052 ft 491 kts 252°
2026-05-05 15:23 36.13205 -128.05204 36052 ft 490 kts 251°
2026-05-05 15:24 36.10804 -128.13114 36052 ft 489 kts 251°
2026-05-05 15:24 36.08443 -128.20958 36052 ft 489 kts 251°
2026-05-05 15:25 36.06032 -128.28858 36052 ft 489 kts 251°
2026-05-05 15:25 36.03661 -128.36689 36052 ft 489 kts 251°
2026-05-05 15:26 36.01242 -128.44576 36052 ft 489 kts 251°
2026-05-05 15:26 35.98857 -128.52420 36057 ft 488 kts 252°
2026-05-05 15:27 35.96450 -128.60243 36050 ft 486 kts 251°
2026-05-05 15:27 35.94072 -128.67967 36052 ft 487 kts 251°
2026-05-05 15:28 35.91647 -128.75849 36052 ft 488 kts 251°
2026-05-05 15:28 35.89227 -128.83637 36053 ft 488 kts 251°
2026-05-05 15:29 35.86831 -128.91466 36052 ft 487 kts 251°
2026-05-05 15:29 35.84387 -128.99287 36052 ft 487 kts 251°
2026-05-05 15:30 35.81978 -129.07035 36052 ft 486 kts 251°
2026-05-05 15:30 35.79540 -129.14819 36052 ft 486 kts 251°
2026-05-05 15:31 35.77116 -129.22568 36052 ft 486 kts 251°
2026-05-05 15:31 35.74668 -129.30342 36052 ft 486 kts 251°
2026-05-05 15:32 35.72217 -129.38111 36053 ft 486 kts 252°
2026-05-05 15:32 35.69799 -129.45792 36052 ft 483 kts 251°
2026-05-05 15:33 35.67362 -129.53504 36051 ft 480 kts 252°
2026-05-05 15:33 35.64947 -129.61120 36052 ft 479 kts 252°
2026-05-05 15:34 35.62534 -129.68717 36052 ft 478 kts 251°
2026-05-05 15:34 35.60110 -129.76346 36052 ft 478 kts 251°
2026-05-05 15:35 35.57681 -129.83977 36052 ft 478 kts 252°
2026-05-05 15:35 35.55272 -129.91531 36052 ft 477 kts 252°
2026-05-05 15:36 35.52831 -129.99163 36052 ft 477 kts 251°
2026-05-05 15:36 35.50391 -130.06691 36052 ft 477 kts 251°
2026-05-05 15:37 35.47946 -130.14287 36052 ft 477 kts 251°
2026-05-05 15:37 35.45496 -130.21811 36052 ft 477 kts 251°
2026-05-05 15:38 35.43065 -130.29317 36052 ft 477 kts 251°
2026-05-05 15:38 35.40576 -130.36863 36052 ft 476 kts 251°
2026-05-05 15:39 35.38125 -130.44421 36052 ft 475 kts 251°
2026-05-05 15:39 35.35650 -130.51944 36052 ft 475 kts 251°
2026-05-05 15:40 35.33210 -130.59412 36052 ft 475 kts 251°
2026-05-05 15:40 35.30737 -130.66886 36052 ft 475 kts 251°
2026-05-05 15:41 35.28268 -130.74407 36052 ft 475 kts 251°
2026-05-05 15:41 35.25794 -130.81858 36052 ft 475 kts 251°
2026-05-05 15:42 35.23336 -130.89362 36052 ft 474 kts 251°
2026-05-05 15:42 35.20866 -130.96875 36053 ft 473 kts 252°
2026-05-05 15:43 35.18396 -131.04271 36051 ft 470 kts 251°
2026-05-05 15:43 35.15930 -131.11659 36051 ft 467 kts 251°
2026-05-05 15:44 35.13499 -131.18964 36052 ft 466 kts 251°
2026-05-05 15:44 35.11027 -131.26302 36052 ft 465 kts 251°
2026-05-05 15:45 35.08570 -131.33633 36052 ft 465 kts 251°
2026-05-05 15:45 35.06133 -131.40879 36052 ft 464 kts 251°
2026-05-05 15:46 35.03677 -131.48177 36052 ft 464 kts 251°
2026-05-05 15:46 35.01211 -131.55445 36052 ft 464 kts 251°
2026-05-05 15:47 34.98743 -131.62731 36052 ft 463 kts 251°
2026-05-05 15:47 34.96274 -131.69963 36052 ft 463 kts 251°
2026-05-05 15:48 34.93800 -131.77230 36052 ft 464 kts 251°
2026-05-05 15:48 34.91316 -131.84480 36053 ft 463 kts 251°
2026-05-05 15:49 34.88843 -131.91684 36052 ft 462 kts 251°
2026-05-05 15:49 34.86364 -131.98890 36052 ft 460 kts 251°
2026-05-05 15:50 34.83894 -132.06057 36052 ft 460 kts 251°
2026-05-05 15:50 34.81424 -132.13218 36052 ft 459 kts 251°
2026-05-05 15:51 34.78946 -132.20397 36052 ft 459 kts 251°
2026-05-05 15:51 34.76464 -132.27580 36052 ft 459 kts 252°
2026-05-05 15:52 34.73980 -132.34692 36052 ft 459 kts 251°
2026-05-05 15:52 34.71479 -132.41833 36052 ft 457 kts 252°
2026-05-05 15:53 34.68994 -132.48928 36051 ft 454 kts 252°
2026-05-05 15:53 34.66535 -132.55937 36052 ft 452 kts 252°
2026-05-05 15:54 34.64075 -132.62939 36052 ft 450 kts 252°
2026-05-05 15:54 34.61623 -132.69927 36052 ft 450 kts 252°
2026-05-05 15:55 34.59159 -132.76932 36052 ft 450 kts 252°
2026-05-05 15:55 34.56710 -132.83884 36052 ft 450 kts 252°
2026-05-05 15:56 34.54257 -132.90847 36052 ft 450 kts 252°
2026-05-05 15:56 34.51787 -132.97841 36047 ft 451 kts 249°
2026-05-05 15:57 34.49298 -133.04903 36055 ft 454 kts 252°
2026-05-05 15:57 34.46833 -133.11888 36052 ft 453 kts 252°
2026-05-05 15:58 34.44346 -133.18899 36052 ft 452 kts 252°
2026-05-05 15:58 34.41855 -133.25858 36052 ft 451 kts 252°
2026-05-05 15:59 34.39360 -133.32812 36052 ft 450 kts 252°
2026-05-05 15:59 34.36853 -133.39796 36052 ft 450 kts 252°
2026-05-05 16:00 34.34365 -133.46707 36052 ft 450 kts 252°
2026-05-05 16:00 34.31857 -133.53660 36052 ft 450 kts 252°
2026-05-05 16:01 34.29345 -133.60606 36052 ft 450 kts 252°
2026-05-05 16:01 34.26842 -133.67511 36052 ft 450 kts 252°
2026-05-05 16:02 34.24320 -133.74457 36052 ft 450 kts 252°
2026-05-05 16:02 34.22218 -133.80231 36053 ft 450 kts 252°
2026-05-05 16:03 34.19707 -133.87136 36052 ft 448 kts 252°
2026-05-05 16:03 34.17210 -133.94000 36052 ft 446 kts 252°
2026-05-05 16:04 34.14710 -134.00865 36052 ft 446 kts 252°
2026-05-05 16:04 34.12197 -134.07735 36052 ft 445 kts 252°
2026-05-05 16:05 34.09698 -134.14533 36052 ft 445 kts 252°
2026-05-05 16:05 34.07175 -134.21379 36052 ft 445 kts 252°
2026-05-05 16:06 34.04666 -134.28177 36052 ft 445 kts 252°
2026-05-05 16:06 34.02138 -134.35016 36052 ft 445 kts 252°
2026-05-05 16:07 33.99608 -134.41847 36052 ft 445 kts 252°
2026-05-05 16:07 33.97086 -134.48645 36052 ft 445 kts 252°
2026-05-05 16:08 33.94547 -134.55470 36052 ft 445 kts 252°
2026-05-05 16:08 33.92014 -134.62266 36052 ft 445 kts 252°
2026-05-05 16:09 33.89486 -134.69034 36052 ft 445 kts 252°
2026-05-05 16:09 33.86940 -134.75838 36052 ft 445 kts 252°
2026-05-05 16:10 33.84386 -134.82651 36052 ft 446 kts 252°
2026-05-05 16:10 33.81841 -134.89419 36052 ft 446 kts 252°
2026-05-05 16:11 33.79275 -134.96238 36052 ft 446 kts 252°
2026-05-05 16:12 33.74162 -135.09777 36052 ft 446 kts 252°
2026-05-05 16:13 33.67728 -135.26711 36052 ft 444 kts 251°
2026-05-05 16:13 33.65175 -135.33396 36053 ft 442 kts 250°
2026-05-05 16:14 33.60107 -135.46661 36051 ft 435 kts 250°
2026-05-05 16:15 33.55059 -135.59834 36052 ft 433 kts 250°
2026-05-05 16:16 33.49997 -135.72984 36052 ft 433 kts 250°
2026-05-05 16:17 33.46217 -135.82774 36052 ft 433 kts 250°
2026-05-05 16:18 33.42423 -135.92565 36052 ft 433 kts 250°
2026-05-05 16:19 33.38608 -136.02389 36052 ft 433 kts 250°
2026-05-05 16:19 33.34800 -136.12162 36052 ft 433 kts 250°
2026-05-05 16:20 33.29711 -136.25197 36052 ft 433 kts 250°
2026-05-05 16:22 33.23325 -136.41505 36052 ft 433 kts 250°
2026-05-05 16:23 33.18206 -136.54531 36052 ft 434 kts 250°
2026-05-05 16:23 33.14358 -136.64308 36052 ft 435 kts 250°
2026-05-05 16:24 33.11773 -136.70870 36052 ft 435 kts 250°
2026-05-05 16:25 33.07903 -136.80662 36052 ft 435 kts 250°
2026-05-05 16:25 33.04005 -136.90437 36052 ft 435 kts 250°
2026-05-05 16:26 32.98780 -137.03487 36047 ft 443 kts 247°
2026-05-05 16:27 32.96103 -137.10147 36058 ft 447 kts 249°
2026-05-05 16:27 32.93422 -137.16810 36052 ft 442 kts 250°
2026-05-05 16:28 32.90796 -137.23368 36051 ft 439 kts 249°
2026-05-05 16:28 32.88152 -137.29922 36052 ft 437 kts 249°
2026-05-05 16:29 32.85533 -137.36403 36052 ft 436 kts 250°
2026-05-05 16:29 32.82912 -137.42879 36052 ft 436 kts 250°
2026-05-05 16:30 32.80277 -137.49376 36052 ft 436 kts 249°
2026-05-05 16:30 32.77636 -137.55875 36052 ft 436 kts 249°
2026-05-05 16:31 32.74992 -137.62368 36052 ft 436 kts 249°
2026-05-05 16:31 32.72361 -137.68821 36052 ft 436 kts 249°
2026-05-05 16:32 32.69717 -137.75288 36052 ft 436 kts 249°
2026-05-05 16:32 32.67063 -137.81772 36052 ft 437 kts 249°
2026-05-05 16:33 32.64405 -137.88248 36052 ft 437 kts 249°
2026-05-05 16:33 32.61754 -137.94701 36052 ft 437 kts 249°
2026-05-05 16:34 32.59074 -138.01209 36052 ft 437 kts 249°
2026-05-05 16:34 32.56415 -138.07657 36052 ft 437 kts 249°
2026-05-05 16:35 32.53733 -138.14147 36052 ft 437 kts 249°
2026-05-05 16:35 32.51070 -138.20581 36052 ft 437 kts 249°
2026-05-05 16:36 32.48382 -138.27061 36052 ft 437 kts 249°
2026-05-05 16:36 32.45713 -138.33504 36052 ft 437 kts 249°
2026-05-05 16:37 32.43053 -138.39932 36052 ft 436 kts 249°
2026-05-05 16:37 32.40380 -138.46390 36052 ft 436 kts 249°
2026-05-05 16:38 32.37703 -138.52843 36052 ft 436 kts 249°
2026-05-05 16:38 32.35018 -138.59255 36052 ft 436 kts 249°
2026-05-05 16:39 32.32313 -138.65705 36052 ft 436 kts 249°
2026-05-05 16:39 32.29635 -138.72083 36052 ft 436 kts 249°
2026-05-05 16:40 32.26926 -138.78519 36052 ft 436 kts 248°
2026-05-05 16:40 32.24211 -138.84933 36052 ft 435 kts 248°
2026-05-05 16:41 32.21515 -138.91287 36052 ft 435 kts 248°
2026-05-05 16:41 32.18791 -138.97687 36052 ft 435 kts 248°
2026-05-05 16:42 32.16089 -139.04053 36052 ft 435 kts 248°
2026-05-05 16:42 32.13373 -139.10444 36052 ft 435 kts 248°
2026-05-05 16:43 32.10669 -139.16810 36052 ft 435 kts 248°
2026-05-05 16:43 32.07957 -139.23168 36052 ft 435 kts 248°
2026-05-05 16:44 32.05231 -139.29563 36052 ft 435 kts 247°
2026-05-05 16:44 32.02548 -139.35914 36052 ft 435 kts 248°
2026-05-05 16:45 31.99842 -139.42280 36052 ft 434 kts 247°
2026-05-05 16:45 31.97094 -139.48669 36052 ft 434 kts 247°
2026-05-05 16:46 31.94378 -139.54985 36052 ft 434 kts 247°
2026-05-05 16:46 31.91644 -139.61337 36052 ft 434 kts 247°
2026-05-05 16:47 31.88923 -139.67644 36052 ft 434 kts 247°
2026-05-05 16:47 31.86642 -139.72924 36052 ft 434 kts 247°
2026-05-05 16:48 31.83442 -139.80306 36052 ft 434 kts 246°
2026-05-05 16:48 31.80698 -139.86611 36052 ft 434 kts 247°
2026-05-05 16:49 31.78407 -139.91888 36052 ft 435 kts 246°
2026-05-05 16:49 31.75649 -139.98236 36052 ft 435 kts 246°
2026-05-05 16:50 31.72897 -140.04543 36052 ft 435 kts 246°
2026-05-05 16:50 31.70129 -140.10879 36052 ft 436 kts 246°
2026-05-05 16:51 31.67372 -140.17187 36052 ft 436 kts 246°
2026-05-05 16:51 31.64585 -140.23559 36052 ft 437 kts 246°
2026-05-05 16:52 31.61824 -140.29867 36052 ft 437 kts 246°
2026-05-05 16:52 31.59058 -140.36208 36052 ft 436 kts 246°
2026-05-05 16:53 31.56303 -140.42550 36052 ft 435 kts 246°
2026-05-05 16:53 31.53540 -140.48805 36052 ft 434 kts 246°
2026-05-05 16:54 31.50770 -140.55085 36052 ft 434 kts 246°
2026-05-05 16:54 31.47990 -140.61369 36052 ft 433 kts 246°
2026-05-05 16:55 31.45204 -140.67658 36052 ft 433 kts 246°
2026-05-05 16:55 31.42440 -140.73884 36052 ft 433 kts 246°
2026-05-05 16:56 31.39645 -140.80169 36052 ft 433 kts 246°
2026-05-05 16:56 31.36873 -140.86443 36044 ft 440 kts 245°
2026-05-05 16:57 31.34013 -140.92885 36062 ft 448 kts 246°
2026-05-05 16:57 31.31135 -140.99240 36052 ft 441 kts 245°
2026-05-05 16:58 31.28292 -141.05587 36051 ft 437 kts 246°
2026-05-05 16:58 31.25487 -141.11851 36052 ft 436 kts 246°
2026-05-05 16:59 31.22667 -141.18140 36051 ft 435 kts 245°
2026-05-05 16:59 31.19855 -141.24375 36052 ft 435 kts 245°
2026-05-05 17:00 31.17022 -141.30639 36052 ft 436 kts 245°
2026-05-05 17:00 31.14195 -141.36862 36052 ft 436 kts 245°
2026-05-05 17:01 31.11351 -141.43140 36052 ft 436 kts 245°
2026-05-05 17:01 31.08527 -141.49361 36052 ft 436 kts 245°
2026-05-05 17:02 31.05687 -141.55617 36052 ft 436 kts 245°
2026-05-05 17:02 31.02840 -141.61868 36052 ft 436 kts 245°
2026-05-05 17:03 31.00012 -141.68087 36052 ft 436 kts 245°
2026-05-05 17:03 30.97156 -141.74345 36052 ft 436 kts 245°
2026-05-05 17:04 30.94326 -141.80544 36052 ft 435 kts 245°
2026-05-05 17:04 30.91495 -141.86784 36052 ft 434 kts 245°
2026-05-05 17:05 30.88668 -141.93020 36052 ft 434 kts 245°
2026-05-05 17:05 30.85826 -141.99190 36052 ft 433 kts 245°
2026-05-05 17:06 30.82989 -142.05357 36052 ft 433 kts 245°
2026-05-05 17:06 30.80134 -142.11551 36052 ft 433 kts 245°
2026-05-05 17:07 30.77283 -142.17726 36052 ft 433 kts 245°
2026-05-05 17:07 30.74439 -142.23875 36052 ft 433 kts 245°
2026-05-05 17:08 30.71579 -142.30048 36051 ft 433 kts 244°
2026-05-05 17:08 30.68723 -142.36195 36052 ft 434 kts 244°
2026-05-05 17:09 30.65836 -142.42399 36052 ft 435 kts 244°
2026-05-05 17:09 30.62973 -142.48549 36052 ft 435 kts 244°
2026-05-05 17:10 30.60086 -142.54748 36052 ft 436 kts 244°
2026-05-05 17:10 30.57211 -142.60914 36052 ft 436 kts 244°
2026-05-05 17:11 30.54316 -142.67114 36052 ft 435 kts 244°
2026-05-05 17:11 30.51448 -142.73253 36052 ft 435 kts 244°
2026-05-05 17:12 30.48547 -142.79455 36052 ft 435 kts 244°
2026-05-05 17:12 30.45670 -142.85600 36052 ft 435 kts 244°
2026-05-05 17:13 30.42773 -142.91781 36052 ft 435 kts 244°
2026-05-05 17:13 30.39881 -142.97913 36052 ft 435 kts 244°
2026-05-05 17:14 30.36974 -143.04072 36052 ft 435 kts 244°
2026-05-05 17:14 30.34056 -143.10243 36052 ft 435 kts 244°
2026-05-05 17:15 30.31155 -143.16365 36052 ft 435 kts 244°
2026-05-05 17:15 30.28230 -143.22531 36052 ft 435 kts 244°
2026-05-05 17:16 30.25327 -143.28639 36052 ft 435 kts 244°
2026-05-05 17:16 30.22395 -143.34764 36051 ft 435 kts 243°
2026-05-05 17:17 30.19457 -143.40916 36052 ft 436 kts 243°
2026-05-05 17:17 30.16537 -143.47037 36052 ft 436 kts 243°
2026-05-05 17:18 30.13607 -143.53184 36052 ft 437 kts 243°
2026-05-05 17:18 30.10689 -143.59298 36052 ft 437 kts 243°
2026-05-05 17:19 30.07747 -143.65457 36052 ft 437 kts 243°
2026-05-05 17:19 30.04808 -143.71587 36052 ft 437 kts 243°
2026-05-05 17:20 30.01850 -143.77733 36052 ft 437 kts 242°
2026-05-05 17:20 29.98882 -143.83827 36052 ft 436 kts 242°
2026-05-05 17:21 29.95917 -143.89958 36052 ft 436 kts 242°
2026-05-05 17:22 29.91505 -143.99080 36052 ft 435 kts 242°
2026-05-05 17:22 29.88563 -144.05152 36052 ft 435 kts 242°
2026-05-05 17:23 29.85599 -144.11262 36052 ft 435 kts 242°
2026-05-05 17:23 29.82658 -144.17312 36052 ft 435 kts 242°
2026-05-05 17:24 29.79690 -144.23404 36052 ft 435 kts 242°
2026-05-05 17:24 29.76730 -144.29480 36052 ft 435 kts 242°
2026-05-05 17:25 29.73772 -144.35519 36052 ft 435 kts 242°
2026-05-05 17:25 29.70801 -144.41608 36052 ft 435 kts 242°
2026-05-05 17:26 29.67817 -144.47688 36052 ft 436 kts 242°
2026-05-05 17:26 29.64840 -144.53760 36039 ft 438 kts 243°
2026-05-05 17:27 29.61843 -144.59937 36065 ft 450 kts 242°
2026-05-05 17:27 29.58759 -144.66227 36069 ft 447 kts 242°
2026-05-05 17:28 29.55724 -144.72367 36080 ft 443 kts 242°
2026-05-05 17:28 29.52673 -144.78520 36081 ft 440 kts 242°
2026-05-05 17:29 29.49656 -144.84592 36081 ft 439 kts 242°
2026-05-05 17:29 29.46626 -144.90685 36081 ft 438 kts 242°
2026-05-05 17:30 29.43605 -144.96781 36081 ft 438 kts 242°
2026-05-05 17:30 29.40598 -145.02832 36081 ft 438 kts 242°
2026-05-05 17:31 29.37574 -145.08915 36081 ft 438 kts 242°
2026-05-05 17:31 29.34564 -145.14955 36081 ft 438 kts 242°
2026-05-05 17:32 29.31537 -145.21033 36081 ft 438 kts 242°
2026-05-05 17:32 29.28529 -145.27065 36081 ft 438 kts 242°
2026-05-05 17:33 29.25495 -145.33134 36081 ft 438 kts 242°
2026-05-05 17:33 29.22478 -145.39161 36081 ft 438 kts 242°
2026-05-05 17:34 29.19940 -145.44225 36081 ft 438 kts 242°
2026-05-05 17:34 29.16918 -145.50253 36081 ft 438 kts 242°
2026-05-05 17:35 29.13884 -145.56298 36081 ft 438 kts 242°
2026-05-05 17:35 29.10858 -145.62322 36081 ft 438 kts 242°
2026-05-05 17:36 29.07820 -145.68366 36081 ft 438 kts 242°
2026-05-05 17:36 29.04781 -145.74405 36081 ft 438 kts 242°
2026-05-05 17:37 29.01735 -145.80455 36081 ft 438 kts 242°
2026-05-05 17:37 28.98703 -145.86470 36081 ft 438 kts 241°
2026-05-05 17:38 28.95657 -145.92459 36081 ft 438 kts 241°
2026-05-05 17:38 28.92583 -145.98505 36081 ft 438 kts 241°
2026-05-05 17:39 28.89539 -146.04485 36081 ft 438 kts 241°
2026-05-05 17:39 28.86473 -146.10498 36081 ft 438 kts 241°
2026-05-05 17:40 28.83403 -146.16512 36081 ft 438 kts 241°
2026-05-05 17:40 28.80353 -146.22478 36081 ft 438 kts 241°
2026-05-05 17:41 28.77267 -146.28506 36081 ft 438 kts 241°
2026-05-05 17:41 28.74201 -146.34485 36081 ft 438 kts 241°
2026-05-05 17:42 28.71117 -146.40488 36081 ft 438 kts 241°
2026-05-05 17:42 28.68055 -146.46440 36081 ft 438 kts 241°
2026-05-05 17:43 28.64962 -146.52449 36081 ft 438 kts 241°
2026-05-05 17:43 28.61875 -146.58430 36081 ft 438 kts 241°
2026-05-05 17:44 28.58797 -146.64391 36081 ft 438 kts 241°
2026-05-05 17:44 28.55712 -146.70351 36081 ft 438 kts 241°
2026-05-05 17:45 28.52620 -146.76324 36081 ft 438 kts 241°
2026-05-05 17:45 28.49520 -146.82298 36081 ft 438 kts 241°
2026-05-05 17:46 28.46434 -146.88236 36081 ft 438 kts 241°
2026-05-05 17:46 28.43346 -146.94172 36081 ft 438 kts 241°
2026-05-05 17:47 28.40214 -147.00184 36081 ft 438 kts 240°
2026-05-05 17:47 28.37120 -147.06115 36081 ft 438 kts 241°
2026-05-05 17:48 28.34022 -147.12043 36081 ft 438 kts 240°
2026-05-05 17:48 28.30903 -147.18005 36081 ft 438 kts 240°
2026-05-05 17:49 28.27782 -147.23961 36081 ft 438 kts 241°
2026-05-05 17:49 28.24678 -147.29879 36081 ft 438 kts 240°
2026-05-05 17:50 28.21549 -147.35834 36081 ft 438 kts 240°
2026-05-05 17:50 28.18441 -147.41738 36081 ft 438 kts 240°
2026-05-05 17:51 28.15311 -147.47679 36081 ft 438 kts 240°
2026-05-05 17:51 28.12197 -147.53580 36081 ft 438 kts 240°
2026-05-05 17:52 28.09061 -147.59518 36081 ft 438 kts 240°
2026-05-05 17:52 28.05926 -147.65443 36081 ft 438 kts 240°
2026-05-05 17:53 28.02779 -147.71377 36081 ft 438 kts 240°
2026-05-05 17:53 27.99663 -147.77255 36081 ft 438 kts 240°
2026-05-05 17:54 27.96523 -147.83160 36081 ft 438 kts 240°
2026-05-05 17:54 27.93375 -147.89079 36081 ft 438 kts 240°
2026-05-05 17:55 27.90218 -147.95000 36081 ft 438 kts 240°
2026-05-05 17:55 27.87088 -148.00868 36081 ft 438 kts 240°
2026-05-05 17:56 27.83929 -148.06775 36081 ft 438 kts 240°
2026-05-05 17:56 27.80769 -148.12687 36069 ft 439 kts 242°
2026-05-05 17:57 27.77623 -148.18635 36091 ft 450 kts 240°
2026-05-05 17:57 27.74375 -148.24700 36084 ft 448 kts 240°
2026-05-05 17:58 27.71157 -148.30653 36081 ft 443 kts 240°
2026-05-05 17:58 27.67936 -148.36587 36081 ft 441 kts 240°
2026-05-05 17:59 27.64765 -148.42467 36081 ft 440 kts 240°
2026-05-05 17:59 27.61574 -148.48371 36081 ft 439 kts 240°
2026-05-05 18:00 27.58395 -148.54252 36081 ft 438 kts 240°
2026-05-05 18:00 27.55238 -148.60088 36081 ft 438 kts 240°
2026-05-05 18:01 27.52047 -148.65979 36081 ft 438 kts 240°
2026-05-05 18:01 27.48873 -148.71829 36081 ft 438 kts 240°
2026-05-05 18:02 27.45687 -148.77690 36081 ft 438 kts 240°
2026-05-05 18:02 27.42515 -148.83525 36081 ft 438 kts 240°
2026-05-05 18:03 27.39323 -148.89383 36081 ft 438 kts 240°
2026-05-05 18:03 27.36151 -148.95198 36081 ft 438 kts 240°
2026-05-05 18:04 27.32959 -149.01038 36081 ft 438 kts 240°
2026-05-05 18:04 27.29760 -149.06885 36081 ft 438 kts 240°
2026-05-05 18:05 27.26557 -149.12734 36081 ft 438 kts 240°
2026-05-05 18:05 27.23375 -149.18541 36081 ft 438 kts 240°
2026-05-05 18:06 27.20170 -149.24388 36081 ft 438 kts 240°
2026-05-05 18:06 27.16960 -149.30221 36081 ft 438 kts 240°
2026-05-05 18:07 27.13770 -149.36009 36081 ft 438 kts 240°
2026-05-05 18:07 27.10545 -149.41857 36081 ft 438 kts 240°
2026-05-05 18:08 27.07346 -149.47651 36081 ft 438 kts 239°
2026-05-05 18:08 27.04127 -149.53476 36081 ft 438 kts 239°
2026-05-05 18:09 27.00930 -149.59258 36081 ft 438 kts 239°
2026-05-05 18:09 26.97707 -149.65082 36081 ft 438 kts 239°
2026-05-05 18:10 26.94489 -149.70892 36081 ft 438 kts 239°
2026-05-05 18:10 26.91288 -149.76667 36081 ft 438 kts 239°
2026-05-05 18:11 26.88065 -149.82476 36081 ft 438 kts 239°
2026-05-05 18:11 26.84843 -149.88280 36081 ft 438 kts 239°
2026-05-05 18:12 26.81619 -149.94084 36081 ft 438 kts 239°
2026-05-05 18:12 26.78400 -149.99873 36081 ft 438 kts 239°
2026-05-05 18:13 26.75184 -150.05651 36081 ft 438 kts 239°
2026-05-05 18:13 26.71953 -150.11433 36081 ft 438 kts 239°
2026-05-05 18:14 26.68729 -150.17184 36081 ft 438 kts 239°
2026-05-05 18:14 26.65471 -150.22987 36081 ft 438 kts 239°
2026-05-05 18:15 26.62229 -150.28753 36081 ft 438 kts 239°
2026-05-05 18:15 26.58997 -150.34493 36081 ft 438 kts 239°
2026-05-05 18:16 26.55743 -150.40267 36081 ft 438 kts 239°
2026-05-05 18:16 26.52499 -150.46015 36081 ft 438 kts 239°
2026-05-05 18:17 26.49236 -150.51786 36081 ft 438 kts 239°
2026-05-05 18:17 26.45997 -150.57513 36081 ft 438 kts 239°
2026-05-05 18:18 26.42730 -150.63277 36081 ft 438 kts 239°
2026-05-05 18:18 26.39478 -150.69012 36081 ft 438 kts 239°
2026-05-05 18:19 26.36767 -150.73785 36081 ft 438 kts 239°
2026-05-05 18:19 26.33492 -150.79547 36081 ft 438 kts 239°
2026-05-05 18:20 26.30230 -150.85274 36081 ft 438 kts 239°
2026-05-05 18:20 26.26953 -150.91023 36081 ft 438 kts 239°
2026-05-05 18:21 26.23695 -150.96733 36081 ft 438 kts 239°
2026-05-05 18:21 26.20417 -151.02468 36081 ft 438 kts 239°
2026-05-05 18:22 26.17132 -151.08211 36081 ft 438 kts 239°
2026-05-05 18:22 26.13865 -151.13910 36081 ft 438 kts 239°
2026-05-05 18:23 26.10583 -151.19633 36081 ft 438 kts 239°
2026-05-05 18:23 26.07294 -151.25357 36081 ft 438 kts 239°
2026-05-05 18:24 26.04025 -151.31045 36081 ft 438 kts 239°
2026-05-05 18:24 26.00733 -151.36764 36081 ft 438 kts 239°
2026-05-05 18:25 25.97432 -151.42487 36081 ft 438 kts 239°
2026-05-05 18:25 25.94155 -151.48168 36081 ft 438 kts 239°
2026-05-05 18:26 25.90854 -151.53876 36081 ft 438 kts 239°
2026-05-05 18:26 25.87566 -151.59559 36074 ft 439 kts 240°
2026-05-05 18:27 25.84248 -151.65333 36092 ft 448 kts 239°
2026-05-05 18:27 25.80876 -151.71110 36084 ft 446 kts 238°
2026-05-05 18:28 25.75856 -151.79750 36081 ft 441 kts 239°
2026-05-05 18:28 25.72519 -151.85472 36081 ft 440 kts 239°
2026-05-05 18:29 25.69200 -151.91172 36081 ft 439 kts 239°
2026-05-05 18:29 25.65895 -151.96838 36081 ft 439 kts 238°
2026-05-05 18:30 25.62563 -152.02542 36081 ft 439 kts 238°
2026-05-05 18:30 25.59257 -152.08195 36081 ft 439 kts 238°
2026-05-05 18:31 25.55939 -152.13862 36081 ft 438 kts 238°
2026-05-05 18:31 25.52627 -152.19515 36081 ft 438 kts 238°
2026-05-05 18:32 25.49315 -152.25160 36081 ft 438 kts 238°
2026-05-05 18:32 25.45979 -152.30837 36081 ft 439 kts 238°
2026-05-05 18:33 25.42648 -152.36499 36081 ft 439 kts 238°
2026-05-05 18:33 25.39326 -152.42139 36081 ft 439 kts 238°
2026-05-05 18:34 25.36004 -152.47773 36081 ft 439 kts 238°
2026-05-05 18:34 25.32667 -152.53428 36081 ft 439 kts 238°
2026-05-05 18:35 25.29343 -152.59052 36081 ft 439 kts 238°
2026-05-05 18:35 25.25979 -152.64739 36081 ft 439 kts 238°
2026-05-05 18:36 25.22652 -152.70356 36081 ft 439 kts 238°
2026-05-05 18:36 25.19319 -152.75970 36081 ft 439 kts 238°
2026-05-05 18:37 25.15982 -152.81590 36081 ft 439 kts 238°
2026-05-05 18:37 25.12613 -152.87258 36081 ft 439 kts 238°
2026-05-05 18:38 25.09274 -152.92863 36081 ft 439 kts 238°
2026-05-05 18:38 25.05933 -152.98473 36081 ft 439 kts 238°
2026-05-05 18:39 25.02572 -153.04102 36081 ft 439 kts 238°
2026-05-05 18:39 24.99209 -153.09736 36081 ft 439 kts 238°
2026-05-05 18:40 24.95865 -153.15322 36081 ft 439 kts 238°
2026-05-05 18:40 24.92503 -153.20940 36081 ft 439 kts 238°
2026-05-05 18:41 24.89129 -153.26564 36081 ft 439 kts 238°
2026-05-05 18:41 24.85788 -153.32135 36081 ft 439 kts 238°
2026-05-05 18:42 24.82414 -153.37746 36081 ft 439 kts 238°
2026-05-05 18:42 24.79057 -153.43329 36081 ft 439 kts 238°
2026-05-05 18:43 24.75681 -153.48930 36081 ft 439 kts 238°
2026-05-05 18:43 24.72312 -153.54524 36081 ft 439 kts 238°
2026-05-05 18:44 24.68926 -153.60127 36081 ft 439 kts 238°
2026-05-05 18:44 24.65544 -153.65723 36081 ft 439 kts 238°
2026-05-05 18:45 24.62181 -153.71278 36081 ft 439 kts 238°
2026-05-05 18:45 24.58788 -153.76881 36081 ft 439 kts 238°
2026-05-05 18:46 24.55428 -153.82425 36081 ft 439 kts 238°
2026-05-05 18:46 24.52029 -153.88019 36081 ft 439 kts 238°
2026-05-05 18:47 24.48641 -153.93593 36081 ft 439 kts 238°
2026-05-05 18:47 24.45265 -153.99138 36081 ft 439 kts 238°
2026-05-05 18:48 24.41874 -154.04713 36081 ft 439 kts 238°
2026-05-05 18:48 24.38494 -154.10252 36081 ft 436 kts 238°
2026-05-05 18:49 24.35113 -154.15783 36082 ft 437 kts 238°
2026-05-05 18:49 24.31718 -154.21350 36082 ft 438 kts 238°
2026-05-05 18:50 24.28896 -154.25965 36082 ft 438 kts 238°
2026-05-05 18:50 24.24938 -154.32430 36081 ft 438 kts 238°
2026-05-05 18:51 24.21533 -154.37984 36081 ft 439 kts 238°
2026-05-05 18:51 24.18109 -154.43504 36081 ft 439 kts 237°
2026-05-05 18:52 24.14676 -154.49043 36081 ft 439 kts 237°
2026-05-05 18:52 24.11261 -154.54546 36081 ft 439 kts 237°
2026-05-05 18:53 24.07816 -154.60090 36081 ft 439 kts 237°
2026-05-05 18:53 24.04400 -154.65582 36081 ft 439 kts 237°
2026-05-05 18:54 24.00955 -154.71113 36081 ft 439 kts 237°
2026-05-05 18:54 23.97510 -154.76640 36081 ft 439 kts 237°
2026-05-05 18:55 23.94091 -154.82119 36081 ft 439 kts 237°
2026-05-05 18:55 23.90635 -154.87650 36081 ft 439 kts 237°
2026-05-05 18:56 23.87204 -154.93135 36081 ft 439 kts 237°
2026-05-05 18:56 23.83761 -154.98646 36073 ft 444 kts 238°
2026-05-05 18:57 23.80222 -155.04303 35975 ft 457 kts 237°
2026-05-05 18:57 23.78402 -155.07196 35473 ft 460 kts 238°
2026-05-05 18:57 23.76593 -155.10049 34974 ft 455 kts 238°
2026-05-05 18:58 23.74805 -155.12861 34474 ft 449 kts 238°
2026-05-05 18:58 23.73037 -155.15670 33971 ft 445 kts 238°
2026-05-05 18:58 23.71305 -155.18441 33471 ft 441 kts 238°
2026-05-05 18:58 23.69594 -155.21169 32974 ft 438 kts 238°
2026-05-05 18:59 23.67863 -155.23905 32473 ft 437 kts 238°
2026-05-05 18:59 23.66135 -155.26630 31975 ft 438 kts 237°
2026-05-05 18:59 23.64395 -155.29370 31474 ft 439 kts 237°
2026-05-05 18:59 23.62657 -155.32125 30973 ft 440 kts 237°
2026-05-05 19:00 23.60913 -155.34888 30474 ft 442 kts 237°
2026-05-05 19:00 23.59164 -155.37659 29975 ft 444 kts 237°
2026-05-05 19:00 23.57437 -155.40396 29482 ft 442 kts 237°
2026-05-05 19:00 23.55700 -155.43143 28982 ft 437 kts 237°
2026-05-05 19:01 23.53841 -155.45752 28515 ft 430 kts 230°
2026-05-05 19:01 23.51664 -155.47902 28079 ft 423 kts 219°
2026-05-05 19:01 23.49115 -155.49469 27648 ft 413 kts 206°
2026-05-05 19:01 23.46430 -155.50453 27242 ft 403 kts 198°
2026-05-05 19:02 23.43711 -155.51080 26839 ft 391 kts 194°
2026-05-05 19:02 23.41070 -155.51556 26449 ft 379 kts 193°
2026-05-05 19:02 23.38511 -155.52025 26067 ft 367 kts 194°
2026-05-05 19:02 23.36065 -155.52545 25702 ft 358 kts 196°
2026-05-05 19:03 23.33651 -155.53137 25346 ft 352 kts 198°
2026-05-05 19:03 23.31279 -155.53782 24994 ft 350 kts 199°
2026-05-05 19:03 23.29676 -155.54240 24757 ft 351 kts 199°
2026-05-05 19:03 23.27340 -155.54918 24412 ft 352 kts 199°
2026-05-05 19:04 23.24967 -155.55599 24061 ft 352 kts 198°
2026-05-05 19:04 23.22591 -155.56276 23711 ft 352 kts 199°
2026-05-05 19:04 23.20221 -155.56946 23360 ft 351 kts 198°
2026-05-05 19:04 23.17912 -155.57592 23018 ft 350 kts 198°
2026-05-05 19:05 23.15532 -155.58255 22662 ft 346 kts 198°
2026-05-05 19:05 23.13235 -155.58896 22308 ft 336 kts 198°
2026-05-05 19:05 23.10987 -155.59521 21970 ft 331 kts 198°
2026-05-05 19:05 23.08748 -155.60145 21642 ft 333 kts 198°
2026-05-05 19:06 23.06479 -155.60777 21312 ft 340 kts 198°
2026-05-05 19:06 23.04182 -155.61406 20964 ft 338 kts 198°
2026-05-05 19:06 23.01942 -155.62014 20618 ft 335 kts 197°
2026-05-05 19:06 22.99685 -155.62635 20267 ft 332 kts 198°
2026-05-05 19:07 22.97439 -155.63258 19928 ft 331 kts 198°
2026-05-05 19:07 22.95212 -155.63874 19595 ft 331 kts 197°
2026-05-05 19:07 22.92994 -155.64485 19250 ft 322 kts 197°
2026-05-05 19:07 22.90851 -155.65074 18920 ft 315 kts 197°
2026-05-05 19:08 22.88755 -155.65658 18597 ft 314 kts 198°
2026-05-05 19:08 22.86613 -155.66255 18274 ft 321 kts 197°
2026-05-05 19:08 22.84437 -155.66859 17941 ft 324 kts 197°
2026-05-05 19:08 22.82253 -155.67466 17592 ft 322 kts 197°
2026-05-05 19:09 22.80088 -155.68069 17241 ft 320 kts 197°
2026-05-05 19:09 22.77958 -155.68664 16894 ft 319 kts 197°
2026-05-05 19:09 22.75822 -155.69260 16622 ft 317 kts 197°
2026-05-05 19:09 22.73678 -155.69858 16507 ft 315 kts 197°
2026-05-05 19:10 22.71537 -155.70451 16408 ft 318 kts 197°
2026-05-05 19:10 22.69379 -155.71044 16308 ft 318 kts 197°
2026-05-05 19:10 22.67240 -155.71635 16208 ft 318 kts 197°
2026-05-05 19:10 22.65090 -155.72225 16107 ft 318 kts 196°
2026-05-05 19:11 22.62941 -155.72814 16007 ft 316 kts 197°
2026-05-05 19:11 22.60824 -155.73396 15908 ft 318 kts 197°
2026-05-05 19:11 22.58686 -155.73986 15809 ft 319 kts 197°
2026-05-05 19:11 22.56536 -155.74574 15708 ft 318 kts 197°
2026-05-05 19:12 22.54384 -155.75159 15608 ft 318 kts 197°
2026-05-05 19:12 22.52242 -155.75747 15507 ft 316 kts 197°
2026-05-05 19:12 22.50109 -155.76335 15407 ft 315 kts 197°
2026-05-05 19:12 22.48004 -155.76915 15307 ft 315 kts 196°
2026-05-05 19:13 22.45886 -155.77497 15207 ft 314 kts 197°
2026-05-05 19:13 22.43766 -155.78080 15106 ft 313 kts 197°
2026-05-05 19:13 22.41660 -155.78661 15014 ft 313 kts 197°
2026-05-05 19:13 22.39545 -155.79243 14915 ft 313 kts 197°
2026-05-05 19:14 22.37436 -155.79825 14815 ft 312 kts 197°
2026-05-05 19:14 22.35324 -155.80398 14715 ft 312 kts 197°
2026-05-05 19:14 22.33247 -155.80964 14623 ft 312 kts 197°
2026-05-05 19:14 22.31151 -155.81540 14524 ft 311 kts 196°
2026-05-05 19:15 22.29044 -155.82117 14440 ft 311 kts 197°
2026-05-05 19:15 22.26950 -155.82688 14341 ft 310 kts 197°
2026-05-05 19:15 22.24855 -155.83255 14243 ft 310 kts 196°
2026-05-05 19:15 22.22762 -155.83825 14150 ft 310 kts 196°
2026-05-05 19:16 22.20666 -155.84399 14058 ft 309 kts 196°
2026-05-05 19:16 22.18580 -155.84973 13962 ft 308 kts 196°
2026-05-05 19:16 22.16523 -155.85538 13876 ft 308 kts 196°
2026-05-05 19:16 22.14455 -155.86106 13789 ft 307 kts 196°
2026-05-05 19:17 22.12391 -155.86675 13691 ft 307 kts 196°
2026-05-05 19:17 22.10318 -155.87244 13599 ft 305 kts 196°
2026-05-05 19:17 22.08248 -155.87813 13515 ft 306 kts 196°
2026-05-05 19:17 22.06195 -155.88376 13425 ft 304 kts 196°
2026-05-05 19:18 22.04140 -155.88937 13336 ft 305 kts 195°
2026-05-05 19:18 22.02113 -155.89485 13239 ft 302 kts 195°
2026-05-05 19:18 22.00066 -155.90036 13157 ft 303 kts 195°
2026-05-05 19:18 21.98018 -155.90591 13057 ft 303 kts 195°
2026-05-05 19:19 21.95970 -155.91147 12957 ft 303 kts 195°
2026-05-05 19:19 21.93943 -155.91700 12858 ft 302 kts 196°
2026-05-05 19:19 21.91910 -155.92257 12762 ft 301 kts 195°
2026-05-05 19:19 21.89850 -155.92819 12671 ft 300 kts 195°
2026-05-05 19:20 21.87856 -155.93356 12592 ft 299 kts 195°
2026-05-05 19:20 21.85823 -155.93908 12497 ft 301 kts 195°
2026-05-05 19:20 21.83798 -155.94454 12396 ft 298 kts 195°
2026-05-05 19:20 21.81823 -155.94987 12315 ft 295 kts 195°
2026-05-05 19:21 21.79826 -155.95533 12232 ft 297 kts 195°
2026-05-05 19:21 21.77815 -155.96078 12133 ft 298 kts 195°
2026-05-05 19:21 21.75812 -155.96616 12031 ft 295 kts 195°
2026-05-05 19:21 21.73821 -155.97151 11943 ft 294 kts 195°
2026-05-05 19:22 21.71839 -155.97686 11854 ft 293 kts 195°
2026-05-05 19:22 21.69859 -155.98222 11757 ft 294 kts 195°
2026-05-05 19:22 21.67865 -155.98767 11657 ft 294 kts 195°
2026-05-05 19:22 21.65916 -155.99301 11557 ft 293 kts 195°
2026-05-05 19:23 21.63939 -155.99843 11457 ft 293 kts 195°
2026-05-05 19:23 21.61968 -156.00385 11366 ft 289 kts 195°
2026-05-05 19:23 21.60019 -156.00922 11287 ft 289 kts 195°
2026-05-05 19:23 21.58059 -156.01461 11186 ft 290 kts 195°
2026-05-05 19:24 21.56128 -156.01988 11088 ft 289 kts 195°
2026-05-05 19:24 21.54172 -156.02520 10988 ft 289 kts 195°
2026-05-05 19:24 21.52235 -156.03041 10889 ft 290 kts 194°
2026-05-05 19:24 21.50252 -156.03572 10787 ft 289 kts 195°
2026-05-05 19:25 21.48296 -156.04105 10687 ft 289 kts 195°
2026-05-05 19:25 21.46394 -156.04621 10589 ft 288 kts 194°
2026-05-05 19:25 21.44426 -156.05149 10488 ft 288 kts 194°
2026-05-05 19:25 21.42480 -156.05668 10388 ft 288 kts 194°
2026-05-05 19:26 21.40529 -156.06195 10288 ft 288 kts 194°
2026-05-05 19:26 21.38584 -156.06724 10188 ft 288 kts 194°
2026-05-05 19:26 21.36664 -156.07240 10088 ft 287 kts 192°
2026-05-05 19:26 21.34718 -156.07768 9986 ft 289 kts 191°
2026-05-05 19:27 21.32770 -156.08299 9887 ft 290 kts 192°
2026-05-05 19:27 21.30820 -156.08827 9810 ft 287 kts 194°
2026-05-05 19:27 21.28887 -156.09339 9717 ft 285 kts 194°
2026-05-05 19:27 21.26955 -156.09849 9616 ft 285 kts 194°
2026-05-05 19:28 21.25077 -156.10360 9518 ft 284 kts 194°
2026-05-05 19:28 21.23144 -156.10883 9416 ft 283 kts 195°
2026-05-05 19:28 21.21239 -156.11408 9316 ft 283 kts 195°
2026-05-05 19:28 21.19358 -156.11997 9158 ft 281 kts 199°
2026-05-05 19:29 21.17547 -156.12813 8981 ft 280 kts 206°
2026-05-05 19:29 21.15838 -156.13803 8809 ft 279 kts 210°
2026-05-05 19:29 21.14217 -156.14893 8634 ft 278 kts 213°
2026-05-05 19:29 21.12617 -156.16061 8433 ft 277 kts 214°
2026-05-05 19:30 21.11032 -156.17258 8237 ft 283 kts 215°
2026-05-05 19:30 21.09409 -156.18499 8040 ft 287 kts 215°
2026-05-05 19:30 21.07793 -156.19745 7838 ft 284 kts 215°
2026-05-05 19:30 21.06229 -156.20959 7608 ft 269 kts 215°
2026-05-05 19:31 21.04766 -156.22104 7381 ft 258 kts 214°
2026-05-05 19:31 21.03329 -156.23214 7180 ft 255 kts 214°
2026-05-05 19:31 21.01876 -156.24331 6974 ft 260 kts 214°
2026-05-05 19:31 21.00374 -156.25480 6752 ft 267 kts 214°
2026-05-05 19:32 20.98843 -156.26642 6527 ft 273 kts 215°
2026-05-05 19:32 20.97288 -156.27820 6303 ft 274 kts 215°
2026-05-05 19:32 20.95753 -156.28980 6061 ft 274 kts 215°
2026-05-05 19:32 20.94197 -156.30152 5809 ft 274 kts 215°
2026-05-05 19:33 20.92636 -156.31328 5558 ft 272 kts 215°
2026-05-05 19:33 20.91110 -156.32461 5411 ft 266 kts 214°
2026-05-05 19:33 20.89569 -156.33535 5359 ft 262 kts 212°
2026-05-05 19:33 20.88013 -156.34554 5309 ft 263 kts 211°
2026-05-05 19:34 20.86424 -156.35549 5261 ft 265 kts 210°
2026-05-05 19:34 20.84818 -156.36521 5211 ft 266 kts 209°
2026-05-05 19:34 20.83194 -156.37492 5163 ft 267 kts 209°
2026-05-05 19:35 20.79964 -156.39415 5090 ft 261 kts 209°
2026-05-05 19:35 20.78414 -156.40337 4963 ft 256 kts 209°
2026-05-05 19:35 20.76910 -156.41227 4692 ft 239 kts 208°
2026-05-05 19:35 20.75487 -156.42053 4429 ft 225 kts 208°
2026-05-05 19:36 20.74147 -156.42828 4173 ft 213 kts 206°
2026-05-05 19:36 20.72875 -156.43574 3913 ft 202 kts 206°
2026-05-05 19:36 20.71668 -156.44289 3652 ft 194 kts 204°
2026-05-05 19:36 20.70502 -156.44976 3390 ft 189 kts 203°
2026-05-05 19:37 20.69376 -156.45635 3161 ft 184 kts 202°
2026-05-05 19:37 20.68258 -156.46286 3035 ft 181 kts 202°
2026-05-05 19:37 20.67151 -156.46929 2996 ft 179 kts 202°
2026-05-05 19:37 20.66095 -156.47543 3021 ft 170 kts 202°
2026-05-05 19:38 20.65078 -156.48140 2995 ft 162 kts 202°
2026-05-05 19:38 20.64103 -156.48710 2999 ft 163 kts 201°
2026-05-05 19:38 20.63077 -156.49307 3019 ft 176 kts 202°
2026-05-05 19:38 20.61990 -156.50029 2995 ft 193 kts 215°
2026-05-05 19:39 20.61361 -156.51330 3004 ft 206 kts 256°
2026-05-05 19:39 20.61578 -156.52847 3010 ft 213 kts 295°
2026-05-05 19:39 20.62579 -156.53981 3019 ft 210 kts 331°
2026-05-05 19:39 20.63894 -156.54645 3030 ft 210 kts 341°
2026-05-05 19:40 20.65235 -156.55263 3000 ft 207 kts 341°
2026-05-05 19:40 20.66521 -156.55932 2993 ft 204 kts 338°
2026-05-05 19:40 20.67750 -156.56643 2997 ft 202 kts 336°
2026-05-05 19:40 20.69060 -156.57050 2997 ft 192 kts 359°
2026-05-05 19:41 20.70395 -156.57092 3005 ft 191 kts
2026-05-05 19:41 20.71637 -156.56704 3000 ft 183 kts 32°
2026-05-05 19:41 20.72689 -156.55958 3010 ft 180 kts 42°
2026-05-05 19:41 20.73675 -156.55127 3002 ft 181 kts 43°
2026-05-05 19:42 20.74670 -156.54330 3000 ft 181 kts 41°
2026-05-05 19:42 20.75695 -156.53552 2997 ft 179 kts 40°
2026-05-05 19:42 20.76712 -156.52762 2961 ft 181 kts 38°
2026-05-05 19:42 20.77740 -156.51939 2756 ft 187 kts 38°
2026-05-05 19:43 20.78792 -156.51151 2507 ft 187 kts 36°
2026-05-05 19:43 20.79861 -156.50366 2253 ft 185 kts 37°
2026-05-05 19:43 20.80911 -156.49609 1989 ft 177 kts 38°
2026-05-05 19:43 20.81869 -156.48915 1777 ft 154 kts 39°
2026-05-05 19:44 20.82697 -156.48296 1568 ft 141 kts 41°
2026-05-05 19:44 20.83493 -156.47699 1357 ft 138 kts 41°
2026-05-05 19:44 20.84259 -156.47127 1188 ft 136 kts 41°
2026-05-05 19:44 20.85037 -156.46543 1020 ft 136 kts 41°
2026-05-05 19:45 20.85819 -156.45964 837 ft 137 kts 41°
2026-05-05 19:45 20.86605 -156.45377 659 ft 136 kts 41°
2026-05-05 19:45 20.87368 -156.44805 482 ft 136 kts 40°
2026-05-05 19:45 20.88145 -156.44231 305 ft 135 kts 40°
2026-05-05 19:46 20.88908 -156.43642 127 ft 134 kts 38°
2026-05-05 19:46 20.89618 -156.43107 64 ft 111 kts 36°
2026-05-05 19:46 20.90057 -156.42778 64 ft 34 kts 35°
2026-05-05 19:46 20.90138 -156.42719 64 ft 5 kts 34°
2026-05-05 19:47 20.90241 -156.42648 64 ft 28 kts 33°
2026-05-05 19:47 20.90416 -156.42519 64 ft 29 kts 35°
2026-05-05 19:47 20.90514 -156.42530 64 ft 15 kts 268°
2026-05-05 19:47 20.90461 -156.42642 64 ft 17 kts 226°
2026-05-05 19:48 20.90358 -156.42724 64 ft 20 kts 215°
2026-05-05 19:48 20.90241 -156.42812 64 ft 22 kts 215°
2026-05-05 19:48 20.90110 -156.42910 64 ft 24 kts 215°
2026-05-05 19:48 20.89965 -156.43019 64 ft 26 kts 215°
2026-05-05 19:49 20.89817 -156.43130 64 ft 22 kts 215°
2026-05-05 19:49 20.89727 -156.43197 64 ft 24 kts 215°
2026-05-05 19:49 20.89541 -156.43335 64 ft 22 kts 214°
2026-05-05 19:49 20.89409 -156.43433 64 ft 24 kts 214°
2026-05-05 19:50 20.89275 -156.43532 64 ft 12 kts 214°
2026-05-05 19:50 20.89253 -156.43579 64 ft 12 kts 275°
2026-05-05 19:50 20.89281 -156.43639 64 ft 9 kts 303°
2026-05-05 19:50 20.89297 -156.43663 64 ft 0 kts 304°